| time (UTC) | temp C | wind direction | speed KPH | gust KPH | rain 1hr cm | rain 24hr cm | rain mn cm | humidity % | barometer mb |
| 20260502170213 | 16 | 197 | 9.7 | 17.7 | 0.00 | 0.00 | 0.00 | 42 | 1015.6 |
| 20260502164200 | 16 | 195 | 8.0 | 11.3 | 0.00 | 0.00 | 0.00 | 45 | 1015.7 |
| 20260502163655 | 15 | 253 | 9.7 | 16.1 | 0.00 | 0.00 | 0.00 | 43 | 1015.7 |
| 20260502163153 | 15 | 233 | 6.4 | 9.7 | 0.00 | 0.00 | 0.00 | 45 | 1016.0 |
| 20260502162649 | 15 | 219 | 11.3 | 17.7 | 0.00 | 0.00 | 0.00 | 45 | 1015.8 |
| 20260502162147 | 15 | 194 | 6.4 | 14.5 | 0.00 | 0.00 | 0.00 | 48 | 1015.9 |
| 20260502161644 | 15 | 221 | 11.3 | 16.1 | 0.00 | 0.00 | 0.00 | 46 | 1016.1 |
| 20260502161140 | 14 | 227 | 11.3 | 14.5 | 0.00 | 0.00 | 0.00 | 46 | 1016.1 |
| 20260502160638 | 13 | 216 | 8.0 | 12.9 | 0.00 | 0.00 | 0.00 | 47 | 1016.3 |
| 20260502160137 | 13 | 171 | 3.2 | 12.9 | 0.00 | 0.00 | 0.00 | 47 | 1016.2 |
| 20260502152051 | 11 | 279 | 1.6 | 9.7 | 0.00 | 0.00 | 0.00 | 54 | 1016.7 |
| 20260502151548 | 11 | 261 | 9.7 | 14.5 | 0.00 | 0.00 | 0.00 | 52 | 1016.9 |
| 20260502151045 | 11 | 247 | 8.0 | 12.9 | 0.00 | 0.00 | 0.00 | 54 | 1016.9 |
| 20260502150543 | 11 | 211 | 3.2 | 11.3 | 0.00 | 0.00 | 0.00 | 54 | 1016.9 |
| 20260502130422 | 6 | 231 | 3.2 | 11.3 | 0.00 | 0.00 | 0.00 | 66 | 1018.6 |
| 20260502123405 | 6 | 231 | 4.8 | 9.7 | 0.00 | 0.00 | 0.00 | 69 | 1018.7 |
| 20260502122902 | 6 | 244 | 4.8 | 9.7 | 0.00 | 0.00 | 0.00 | 69 | 1018.6 |
| 20260502122358 | 6 | 214 | 3.2 | 6.4 | 0.00 | 0.00 | 0.00 | 71 | 1018.6 |
| 20260502121856 | 6 | 178 | 1.6 | 9.7 | 0.00 | 0.00 | 0.00 | 71 | 1018.6 |
| 20260502121353 | 6 | 221 | 1.6 | 4.8 | 0.00 | 0.00 | 0.00 | 70 | 1018.4 |
| 20260502120851 | 5 | 217 | 1.6 | 6.4 | 0.00 | 0.00 | 0.00 | 68 | 1018.7 |
| 20260502120347 | 5 | 232 | 6.4 | 9.7 | 0.00 | 0.00 | 0.00 | 70 | 1018.7 |
| 20260502115844 | 5 | 205 | 0.0 | 1.6 | 0.00 | 0.00 | 0.00 | 71 | 1018.7 |
| 20260502115341 | 5 | 134 | 1.6 | 3.2 | 0.00 | 0.00 | 0.00 | 72 | 1018.8 |
| 20260502114838 | 5 | 166 | 1.6 | 1.6 | 0.00 | 0.00 | 0.00 | 73 | 1018.7 |
| 20260502114335 | 5 | 239 | 3.2 | 4.8 | 0.00 | 0.00 | 0.00 | 71 | 1018.6 |
| 20260502113832 | 4 | 234 | 4.8 | 4.8 | 0.00 | 0.00 | 0.00 | 72 | 1018.8 |
| 20260502113329 | 3 | 209 | 0.0 | 0.0 | 0.00 | 0.00 | 0.00 | 73 | 1018.7 |
| 20260502112828 | 3 | 186 | 0.0 | 1.6 | 0.00 | 0.00 | 0.00 | 74 | 1018.6 |
| 20260502112324 | 3 | 177 | 0.0 | 1.6 | 0.00 | 0.00 | 0.00 | 74 | 1018.7 |
| 20260502111822 | 3 | 178 | 0.0 | 0.0 | 0.00 | 0.00 | 0.00 | 77 | 1018.7 |
| 20260502111319 | 3 | 193 | 0.0 | 0.0 | 0.00 | 0.00 | 0.00 | 77 | 1018.9 |
| 20260502110817 | 3 | 229 | 0.0 | 0.0 | 0.00 | 0.00 | 0.00 | 77 | 1019.0 |
| 20260502110315 | 3 | 216 | 0.0 | 1.6 | 0.00 | 0.00 | 0.00 | 77 | 1018.8 |
| 20260502105812 | 2 | 222 | 1.6 | 1.6 | 0.00 | 0.00 | 0.00 | 79 | 1018.8 |
| 20260502105308 | 2 | 206 | 0.0 | 0.0 | 0.00 | 0.00 | 0.00 | 79 | 1018.7 |
| 20260502104806 | 2 | 183 | 0.0 | 0.0 | 0.00 | 0.00 | 0.00 | 80 | 1018.9 |
| 20260502104303 | 2 | 235 | 0.0 | 1.6 | 0.00 | 0.00 | 0.00 | 80 | 1019.2 |
| 20260502103800 | 2 | 184 | 0.0 | 1.6 | 0.00 | 0.00 | 0.00 | 81 | 1019.0 |
| 20260502103257 | 2 | 193 | 0.0 | 0.0 | 0.00 | 0.00 | 0.00 | 81 | 1019.1 |
| 20260502102754 | 2 | 244 | 0.0 | 1.6 | 0.00 | 0.00 | 0.00 | 82 | 1019.0 |
| 20260502102251 | 1 | 240 | 0.0 | 1.6 | 0.00 | 0.00 | 0.00 | 84 | 1019.1 |
| 20260502101749 | 1 | 226 | 0.0 | 0.0 | 0.00 | 0.00 | 0.00 | 85 | 1019.2 |
| 20260502101247 | 1 | 194 | 0.0 | 0.0 | 0.00 | 0.00 | 0.00 | 85 | 1019.2 |
| 20260502100745 | 1 | 186 | 0.0 | 0.0 | 0.00 | 0.00 | 0.00 | 86 | 1019.3 |
| 20260502100243 | 1 | 198 | 0.0 | 0.0 | 0.00 | 0.00 | 0.00 | 86 | 1019.4 |
| 20260502091218 | 1 | 222 | 0.0 | 0.0 | 0.00 | 0.00 | 0.00 | 90 | 1019.4 |
| 20260502090715 | 1 | 184 | 0.0 | 0.0 | 0.00 | 0.00 | 0.00 | 91 | 1019.2 |
| 20260502090212 | 1 | 208 | 0.0 | 0.0 | 0.00 | 0.00 | 0.00 | 92 | 1019.3 |
| 20260502071107 | 1 | 223 | 0.0 | 0.0 | 0.00 | 0.00 | 0.00 | 96 | 1019.9 |
| 20260502070606 | 1 | 205 | 0.0 | 0.0 | 0.00 | 0.00 | 0.00 | 96 | 1019.9 |
| 20260502065601 | 1 | 200 | 0.0 | 0.0 | 0.00 | 0.00 | 0.00 | 97 | 1019.7 |
| 20260502065058 | 1 | 208 | 0.0 | 0.0 | 0.00 | 0.00 | 0.00 | 96 | 1019.9 |
| 20260502064551 | 1 | 208 | 0.0 | 0.0 | 0.00 | 0.00 | 0.00 | 96 | 1020.0 |
| 20260502064048 | 2 | 218 | 0.0 | 0.0 | 0.00 | 0.00 | 0.00 | 96 | 1020.0 |
| 20260502063545 | 1 | 202 | 0.0 | 0.0 | 0.00 | 0.00 | 0.00 | 96 | 1020.0 |
| 20260502063043 | 1 | 198 | 0.0 | 0.0 | 0.00 | 0.00 | 0.00 | 96 | 1020.0 |
| 20260502062540 | 1 | 194 | 0.0 | 0.0 | 0.00 | 0.00 | 0.00 | 94 | 1020.0 |
| 20260502062038 | 0 | 226 | 0.0 | 1.6 | 0.00 | 0.00 | 0.00 | 94 | 1020.0 |
| 20260502061536 | 0 | 197 | 0.0 | 0.0 | 0.00 | 0.00 | 0.00 | 92 | 1019.9 |
| 20260502061033 | 0 | 175 | 0.0 | 0.0 | 0.00 | 0.00 | 0.00 | 89 | 1020.1 |
| 20260502060528 | 0 | 174 | 0.0 | 0.0 | 0.00 | 0.00 | 0.00 | 88 | 1020.0 |
| 20260502060025 | 1 | 174 | 0.0 | 0.0 | 0.00 | 0.00 | 0.00 | 89 | 1019.9 |
| 20260502055522 | 1 | 174 | 0.0 | 0.0 | 0.00 | 0.00 | 0.00 | 91 | 1020.0 |
| 20260502055021 | 1 | 190 | 0.0 | 0.0 | 0.00 | 0.00 | 0.00 | 93 | 1020.0 |
| 20260502054520 | 1 | 191 | 0.0 | 0.0 | 0.00 | 0.00 | 0.00 | 93 | 1020.1 |
| 20260502054016 | 1 | 191 | 0.0 | 0.0 | 0.00 | 0.00 | 0.00 | 92 | 1020.3 |
| 20260502053513 | 1 | 191 | 0.0 | 0.0 | 0.00 | 0.00 | 0.00 | 89 | 1020.1 |
| 20260502053011 | 1 | 191 | 0.0 | 0.0 | 0.00 | 0.00 | 0.00 | 88 | 1019.9 |
| 20260502052509 | 1 | 191 | 0.0 | 0.0 | 0.00 | 0.00 | 0.00 | 87 | 1020.1 |
| 20260502052007 | 1 | 191 | 0.0 | 0.0 | 0.00 | 0.00 | 0.00 | 89 | 1020.2 |
| 20260502051505 | 2 | 194 | 0.0 | 0.0 | 0.00 | 0.00 | 0.00 | 87 | 1020.0 |
| 20260502051002 | 2 | 194 | 0.0 | 0.0 | 0.00 | 0.00 | 0.00 | 87 | 1020.1 |
| 20260502050458 | 2 | 192 | 0.0 | 0.0 | 0.00 | 0.00 | 0.00 | 86 | 1020.2 |
| 20260502045955 | 1 | 194 | 0.0 | 0.0 | 0.00 | 0.00 | 0.00 | 86 | 1020.2 |
| 20260502045452 | 1 | 199 | 0.0 | 0.0 | 0.00 | 0.00 | 0.00 | 88 | 1020.3 |
| 20260502044949 | 1 | 199 | 0.0 | 0.0 | 0.00 | 0.00 | 0.00 | 89 | 1020.3 |
| 20260502044444 | 1 | 204 | 0.0 | 0.0 | 0.00 | 0.00 | 0.00 | 88 | 1020.3 |
| 20260502043942 | 1 | 204 | 0.0 | 0.0 | 0.00 | 0.00 | 0.00 | 87 | 1020.4 |
| 20260502043440 | 1 | 200 | 0.0 | 0.0 | 0.00 | 0.00 | 0.00 | 86 | 1020.3 |
| 20260502042939 | 1 | 199 | 0.0 | 0.0 | 0.00 | 0.00 | 0.00 | 85 | 1020.3 |
| 20260502042436 | 1 | 199 | 0.0 | 0.0 | 0.00 | 0.00 | 0.00 | 83 | 1020.3 |
| 20260502041933 | 2 | 200 | 0.0 | 0.0 | 0.00 | 0.00 | 0.00 | 81 | 1020.3 |
| 20260502041431 | 2 | 200 | 0.0 | 0.0 | 0.00 | 0.00 | 0.00 | 80 | 1020.2 |
| 20260502040928 | 2 | 201 | 0.0 | 0.0 | 0.00 | 0.00 | 0.00 | 79 | 1020.5 |
| 20260502040424 | 2 | 192 | 0.0 | 0.0 | 0.00 | 0.00 | 0.00 | 79 | 1020.4 |
| 20260502035921 | 3 | 192 | 0.0 | 0.0 | 0.00 | 0.00 | 0.00 | 78 | 1020.4 |
| 20260502035417 | 3 | 192 | 0.0 | 0.0 | 0.00 | 0.00 | 0.00 | 73 | 1020.4 |
| 20260502034915 | 3 | 196 | 0.0 | 0.0 | 0.00 | 0.00 | 0.00 | 71 | 1020.6 |
| 20260502034414 | 3 | 200 | 0.0 | 0.0 | 0.00 | 0.00 | 0.00 | 67 | 1020.5 |
| 20260502033911 | 3 | 197 | 0.0 | 0.0 | 0.00 | 0.00 | 0.00 | 65 | 1020.6 |
| 20260502033409 | 3 | 197 | 0.0 | 0.0 | 0.00 | 0.00 | 0.00 | 63 | 1020.5 |
| 20260502032905 | 3 | 188 | 0.0 | 0.0 | 0.00 | 0.00 | 0.00 | 62 | 1020.5 |
| 20260502032402 | 3 | 196 | 0.0 | 0.0 | 0.00 | 0.00 | 0.00 | 63 | 1020.5 |
| 20260502031859 | 4 | 186 | 0.0 | 0.0 | 0.00 | 0.00 | 0.00 | 62 | 1020.6 |
| 20260502031357 | 3 | 192 | 0.0 | 0.0 | 0.00 | 0.00 | 0.00 | 62 | 1020.7 |
| 20260502030855 | 3 | 192 | 0.0 | 0.0 | 0.00 | 0.00 | 0.00 | 61 | 1020.4 |
| 20260502030353 | 4 | 192 | 0.0 | 0.0 | 0.00 | 0.00 | 0.00 | 59 | 1020.5 |
| 20260502025850 | 5 | 192 | 0.0 | 0.0 | 0.00 | 0.00 | 0.00 | 58 | 1020.3 |
| 20260502025348 | 5 | 192 | 0.0 | 0.0 | 0.00 | 0.00 | 0.00 | 57 | 1020.3 |
| 20260502024845 | 5 | 192 | 0.0 | 0.0 | 0.00 | 0.00 | 0.00 | 56 | 1020.2 |
| 20260502024343 | 5 | 192 | 0.0 | 0.0 | 0.00 | 0.00 | 0.00 | 57 | 1020.3 |
| 20260502023841 | 5 | 192 | 0.0 | 0.0 | 0.00 | 0.00 | 0.00 | 57 | 1020.2 |
| 20260502023338 | 5 | 191 | 0.0 | 0.0 | 0.00 | 0.00 | 0.00 | 58 | 1020.2 |
| 20260502022836 | 5 | 193 | 0.0 | 0.0 | 0.00 | 0.00 | 0.00 | 56 | 1020.2 |
| 20260502022332 | 5 | 195 | 0.0 | 0.0 | 0.00 | 0.00 | 0.00 | 55 | 1020.3 |
| 20260502021829 | 6 | 199 | 0.0 | 0.0 | 0.00 | 0.00 | 0.00 | 54 | 1020.3 |
| 20260502021326 | 6 | 208 | 0.0 | 0.0 | 0.00 | 0.00 | 0.00 | 53 | 1020.4 |
| 20260502020824 | 6 | 191 | 0.0 | 0.0 | 0.00 | 0.00 | 0.00 | 52 | 1020.4 |
| 20260502020321 | 7 | 203 | 0.0 | 0.0 | 0.00 | 0.00 | 0.00 | 51 | 1020.2 |
| 20260502015818 | 7 | 224 | 0.0 | 0.0 | 0.00 | 0.00 | 0.00 | 49 | 1020.3 |
| 20260502015315 | 8 | 259 | 0.0 | 1.6 | 0.00 | 0.00 | 0.00 | 47 | 1020.1 |
| 20260502014812 | 8 | 307 | 1.6 | 1.6 | 0.00 | 0.00 | 0.00 | 47 | 1020.1 |
| 20260502014309 | 8 | 333 | 1.6 | 3.2 | 0.00 | 0.00 | 0.00 | 46 | 1020.1 |
| 20260502013805 | 8 | 260 | 0.0 | 3.2 | 0.00 | 0.00 | 0.00 | 44 | 1020.0 |
| 20260502013301 | 8 | 328 | 3.2 | 4.8 | 0.00 | 0.00 | 0.00 | 44 | 1020.0 |
| 20260502012757 | 8 | 338 | 3.2 | 4.8 | 0.00 | 0.00 | 0.00 | 45 | 1020.2 |
| 20260502012255 | 9 | 281 | 1.6 | 4.8 | 0.00 | 0.00 | 0.00 | 43 | 1019.9 |
| 20260502011753 | 9 | 317 | 3.2 | 6.4 | 0.00 | 0.00 | 0.00 | 43 | 1020.0 |
| 20260502011248 | 9 | 322 | 1.6 | 4.8 | 0.00 | 0.00 | 0.00 | 43 | 1019.9 |
| 20260502010746 | 10 | 323 | 3.2 | 9.7 | 0.00 | 0.00 | 0.00 | 41 | 1019.9 |
| 20260502010242 | 10 | 338 | 4.8 | 6.4 | 0.00 | 0.00 | 0.00 | 40 | 1020.0 |
| 20260502005739 | 10 | 347 | 6.4 | 9.7 | 0.00 | 0.00 | 0.00 | 39 | 1019.9 |
| 20260502005237 | 10 | 307 | 4.8 | 4.8 | 0.00 | 0.00 | 0.00 | 39 | 1019.9 |
| 20260502004734 | 10 | 287 | 3.2 | 11.3 | 0.00 | 0.00 | 0.00 | 38 | 1019.9 |
| 20260502004230 | 10 | 289 | 4.8 | 4.8 | 0.00 | 0.00 | 0.00 | 38 | 1019.9 |
| 20260502003728 | 10 | 303 | 4.8 | 11.3 | 0.00 | 0.00 | 0.00 | 38 | 1019.9 |
| 20260502003225 | 10 | 287 | 4.8 | 6.4 | 0.00 | 0.00 | 0.00 | 38 | 1019.9 |
| 20260502002720 | 11 | 330 | 3.2 | 9.7 | 0.00 | 0.00 | 0.00 | 39 | 1019.9 |
| 20260502002219 | 10 | 272 | 3.2 | 4.8 | 0.00 | 0.00 | 0.00 | 37 | 1019.9 |
| 20260502001715 | 11 | 304 | 6.4 | 9.7 | 0.00 | 0.00 | 0.00 | 37 | 1019.6 |
| 20260502001214 | 11 | 267 | 3.2 | 3.2 | 0.00 | 0.00 | 0.00 | 38 | 1019.6 |
| 20260502000711 | 11 | 320 | 3.2 | 6.4 | 0.00 | 0.00 | 0.00 | 35 | 1020.0 |
| 20260502000211 | 11 | 16 | 6.4 | 12.9 | 0.00 | 0.00 | 0.00 | 37 | 1019.6 |
| 20260501235704 | 11 | 258 | 1.6 | 11.3 | 0.00 | 0.00 | 0.00 | 36 | 1019.5 |
| 20260501235200 | 11 | 22 | 4.8 | 9.7 | 0.00 | 0.00 | 0.00 | 35 | 1019.6 |
| 20260501234656 | 11 | 5 | 4.8 | 9.7 | 0.00 | 0.00 | 0.00 | 36 | 1019.7 |
| 20260501234153 | 11 | 356 | 4.8 | 11.3 | 0.00 | 0.00 | 0.00 | 36 | 1019.6 |
| 20260501233651 | 11 | 19 | 6.4 | 6.4 | 0.00 | 0.00 | 0.00 | 37 | 1019.7 |
| 20260501233148 | 11 | 334 | 4.8 | 14.5 | 0.00 | 0.00 | 0.00 | 37 | 1019.9 |
| 20260501232644 | 11 | 285 | 1.6 | 3.2 | 0.00 | 0.00 | 0.00 | 35 | 1019.7 |
| 20260501232142 | 11 | 174 | 0.0 | 12.9 | 0.00 | 0.00 | 0.00 | 34 | 1019.6 |
| 20260501231639 | 11 | 33 | 4.8 | 11.3 | 0.00 | 0.00 | 0.00 | 36 | 1019.5 |
| 20260501231137 | 11 | 234 | 8.0 | 11.3 | 0.00 | 0.00 | 0.00 | 37 | 1019.7 |
| 20260501230636 | 11 | 335 | 1.6 | 6.4 | 0.00 | 0.00 | 0.00 | 38 | 1019.6 |
| 20260501230133 | 12 | 290 | 6.4 | 11.3 | 0.00 | 0.00 | 0.00 | 36 | 1019.4 |
| 20260501225631 | 11 | 3 | 1.6 | 11.3 | 0.00 | 0.00 | 0.00 | 39 | 1019.7 |
| 20260501225127 | 11 | 320 | 4.8 | 12.9 | 0.00 | 0.00 | 0.00 | 35 | 1019.7 |
| 20260501224624 | 11 | 342 | 6.4 | 12.9 | 0.00 | 0.00 | 0.00 | 39 | 1019.6 |
| 20260501224121 | 11 | 323 | 3.2 | 12.9 | 0.00 | 0.00 | 0.00 | 35 | 1019.6 |
| 20260501223617 | 11 | 289 | 8.0 | 14.5 | 0.00 | 0.00 | 0.00 | 36 | 1019.9 |
| 20260501223114 | 11 | 351 | 6.4 | 14.5 | 0.00 | 0.00 | 0.00 | 36 | 1020.0 |
| 20260501222610 | 11 | 334 | 4.8 | 9.7 | 0.00 | 0.00 | 0.00 | 37 | 1019.7 |
| 20260501222107 | 12 | 21 | 3.2 | 14.5 | 0.00 | 0.00 | 0.00 | 41 | 1019.9 |
| 20260501221604 | 11 | 315 | 6.4 | 12.9 | 0.00 | 0.00 | 0.00 | 37 | 1019.6 |
| 20260501221102 | 12 | 342 | 3.2 | 11.3 | 0.00 | 0.00 | 0.00 | 41 | 1019.9 |
| 20260501220559 | 11 | 271 | 9.7 | 12.9 | 0.00 | 0.00 | 0.00 | 37 | 1019.6 |
| 20260501220055 | 11 | 351 | 6.4 | 12.9 | 0.00 | 0.00 | 0.00 | 37 | 1019.9 |
| 20260501215552 | 12 | 9 | 4.8 | 11.3 | 0.00 | 0.00 | 0.00 | 37 | 1020.0 |
| 20260501215047 | 12 | 321 | 8.0 | 11.3 | 0.00 | 0.00 | 0.00 | 37 | 1019.9 |
| 20260501214543 | 12 | 279 | 3.2 | 6.4 | 0.00 | 0.00 | 0.00 | 44 | 1019.7 |
| 20260501214039 | 11 | 208 | 4.8 | 6.4 | 0.00 | 0.00 | 0.00 | 37 | 1019.9 |
| 20260501213536 | 11 | 272 | 1.6 | 3.2 | 0.00 | 0.00 | 0.00 | 41 | 1019.9 |
| 20260501213032 | 10 | 229 | 1.6 | 9.7 | 0.00 | 0.00 | 0.00 | 40 | 1020.2 |
| 20260501212528 | 10 | 342 | 6.4 | 11.3 | 0.00 | 0.00 | 0.00 | 40 | 1020.0 |
| 20260501212026 | 11 | 342 | 9.7 | 12.9 | 0.00 | 0.00 | 0.00 | 38 | 1020.0 |
| 20260501211522 | 11 | 29 | 1.6 | 4.8 | 0.00 | 0.00 | 0.00 | 39 | 1020.0 |
| 20260501211020 | 11 | 47 | 6.4 | 6.4 | 0.00 | 0.00 | 0.00 | 40 | 1020.1 |
| 20260501210516 | 10 | 29 | 3.2 | 6.4 | 0.00 | 0.00 | 0.00 | 39 | 1020.1 |
| 20260501210013 | 10 | 128 | 3.2 | 4.8 | 0.00 | 0.00 | 0.00 | 39 | 1020.2 |
| 20260501205510 | 10 | 104 | 1.6 | 3.2 | 0.00 | 0.00 | 0.00 | 37 | 1020.4 |
| 20260501205008 | 11 | 336 | 1.6 | 3.2 | 0.00 | 0.00 | 0.00 | 37 | 1020.3 |
| 20260501204503 | 11 | 288 | 9.7 | 16.1 | 0.00 | 0.00 | 0.00 | 40 | 1020.4 |
| 20260501203959 | 11 | 0 | 4.8 | 11.3 | 0.00 | 0.00 | 0.00 | 36 | 1020.4 |
| 20260501203456 | 11 | 256 | 3.2 | 12.9 | 0.00 | 0.00 | 0.00 | 37 | 1020.4 |
| 20260501202954 | 11 | 317 | 3.2 | 4.8 | 0.00 | 0.00 | 0.00 | 38 | 1020.3 |
| 20260501202450 | 11 | 18 | 6.4 | 9.7 | 0.00 | 0.00 | 0.00 | 39 | 1020.4 |
| 20260501201947 | 11 | 97 | 3.2 | 9.7 | 0.00 | 0.00 | 0.00 | 39 | 1020.3 |
| 20260501201444 | 11 | 34 | 4.8 | 6.4 | 0.00 | 0.00 | 0.00 | 40 | 1020.4 |
| 20260501200941 | 11 | 338 | 6.4 | 6.4 | 0.00 | 0.00 | 0.00 | 38 | 1020.4 |
| 20260501200438 | 11 | 241 | 1.6 | 6.4 | 0.00 | 0.00 | 0.00 | 40 | 1020.5 |
| 20260501195935 | 11 | 45 | 6.4 | 11.3 | 0.00 | 0.00 | 0.00 | 37 | 1020.4 |
| 20260501195432 | 11 | 75 | 1.6 | 11.3 | 0.00 | 0.00 | 0.00 | 37 | 1020.4 |
| 20260501194927 | 10 | 334 | 3.2 | 11.3 | 0.00 | 0.00 | 0.00 | 38 | 1020.7 |
| 20260501194424 | 10 | 49 | 4.8 | 14.5 | 0.00 | 0.00 | 0.00 | 42 | 1020.5 |
| 20260501193920 | 11 | 267 | 3.2 | 4.8 | 0.00 | 0.00 | 0.00 | 41 | 1020.4 |
| 20260501193418 | 10 | 284 | 1.6 | 11.3 | 0.00 | 0.00 | 0.00 | 39 | 1020.5 |
| 20260501192916 | 11 | 317 | 11.3 | 14.5 | 0.00 | 0.00 | 0.00 | 39 | 1020.6 |
| 20260501192413 | 10 | 43 | 6.4 | 12.9 | 0.00 | 0.00 | 0.00 | 38 | 1020.6 |
| 20260501191910 | 10 | 335 | 3.2 | 11.3 | 0.00 | 0.00 | 0.00 | 39 | 1020.6 |
| 20260501191407 | 10 | 74 | 6.4 | 12.9 | 0.00 | 0.00 | 0.00 | 40 | 1020.6 |
| 20260501190904 | 10 | 36 | 8.0 | 12.9 | 0.00 | 0.00 | 0.00 | 40 | 1020.8 |
| 20260501190400 | 10 | 45 | 1.6 | 14.5 | 0.00 | 0.00 | 0.00 | 42 | 1020.8 |
| 20260501185900 | 10 | 48 | 6.4 | 12.9 | 0.00 | 0.00 | 0.00 | 37 | 1020.6 |
| 20260501185356 | 10 | 335 | 6.4 | 9.7 | 0.00 | 0.00 | 0.00 | 40 | 1020.6 |
| 20260501184852 | 10 | 317 | 8.0 | 11.3 | 0.00 | 0.00 | 0.00 | 38 | 1020.7 |
| 20260501184348 | 10 | 33 | 8.0 | 11.3 | 0.00 | 0.00 | 0.00 | 40 | 1020.7 |
| 20260501183843 | 10 | 14 | 8.0 | 12.9 | 0.00 | 0.00 | 0.00 | 43 | 1020.9 |
| 20260501183341 | 10 | 354 | 4.8 | 6.4 | 0.00 | 0.00 | 0.00 | 42 | 1020.7 |
| 20260501182837 | 10 | 5 | 3.2 | 6.4 | 0.00 | 0.00 | 0.00 | 45 | 1020.7 |
| 20260501182335 | 9 | 350 | 3.2 | 3.2 | 0.00 | 0.00 | 0.00 | 42 | 1020.9 |
| 20260501181831 | 9 | 30 | 8.0 | 16.1 | 0.00 | 0.00 | 0.00 | 43 | 1020.8 |
| 20260501181328 | 9 | 4 | 12.9 | 16.1 | 0.00 | 0.00 | 0.00 | 42 | 1020.9 |
| 20260501180826 | 10 | 55 | 4.8 | 12.9 | 0.00 | 0.00 | 0.00 | 48 | 1020.8 |
| 20260501180321 | 9 | 55 | 4.8 | 9.7 | 0.00 | 0.00 | 0.00 | 47 | 1020.8 |
| 20260501175819 | 8 | 10 | 4.8 | 12.9 | 0.00 | 0.00 | 0.00 | 44 | 1021.0 |
| 20260501175316 | 9 | 332 | 6.4 | 16.1 | 0.00 | 0.00 | 0.00 | 43 | 1020.6 |